Flag for Poland Weather past 2 weeks in Jastrzębie Zdrój, Poland

Now
50 °F

Fog.


Feels Like: 50 °F
Forecast: 52 / 72 °F
Wind: 1 mph from Southwest

Location: Ostrava / Mosnov

Current Time: Sep 17, 2014 at 5:47:21 AM

Latest Report: Sep 17, 2014 at 4:00 AM


Visibility: 2 mi

Pressure: 30.14 "Hg

Humidity: 97%

Dew point: 49 °F

Location of Jastrzębie ZdrójLocation

Historic Weather in Jastrzębie Zdrój — Graph

°F

Jastrzębie Zdrój temperature yesterday

Maximum temperature yesterday: 65 °F (at 5:00 PM)
Minimum temperature yesterday: 56 °F (at 3:00 AM)
Average temperature yesterday: 59 °F

Past Weeks' High & Low Weather Summary

 TemperatureHumidityPressure
High78 °F (Sep 8, 2:00 PM)100% (Sep 12, 9:00 PM)30.16 "Hg (Sep 12, 9:00 PM)
Low50 °F (Sep 17, 4:00 AM)45% (Sep 8, 4:00 PM)29.85 "Hg (Sep 12, 5:00 AM)
Average62 °F87%30.03 "Hg
* Reported Sep 2 4:00 AM — Sep 17 4:00 AM, Jastrzębie Zdrój, Weather by CustomWeather, © 2014

Note: Actual official high and low records may vary slightly from our data, if they occured in-between our weather recording intervals... More about our weather records

Advertising

Jastrzębie Zdrój weather history for previous 24 hours

 ConditionsComfort  
Time TempWeatherWind HumidityBarometerVisibility
4:00 AM
Sep 17
50 °FFog.1 mph97%30.14 "Hg2 mi
3:00 AM51 °FFog.N/A97%30.14 "Hg2 mi
2:00 AM51 °FFog.2 mph96%30.14 "Hg3 mi
1:00 AM53 °FFog.2 mph92%30.14 "Hg5 mi
12:00 AM54 °FFog.1 mph92%30.14 "Hg5 mi
11:00 PM
Sep 16
56 °FPassing clouds.1 mph91%30.13 "Hg7 mi
10:00 PM58 °FPassing clouds.1 mph89%30.13 "Hg7 mi
9:00 PM59 °FPassing clouds.N/A89%30.12 "Hg9 mi
8:00 PM60 °FOvercast.2 mph85%30.11 "Hg9 mi
7:00 PM62 °FOvercast.3 mph83%30.10 "Hg7 mi
6:00 PM64 °FOvercast.N/A73%30.11 "Hg6 mi
5:00 PM65 °FSprinkles. Partly sunny.N/A78%30.10 "Hg4 mi
4:00 PM65 °FSprinkles. Overcast.N/A83%30.10 "Hg2 mi
3:00 PM65 °FFog.5 mph74%30.10 "Hg2 mi
2:00 PM65 °FHaze.N/A66%30.11 "Hg3 mi
1:00 PM61 °FFog.N/A82%30.13 "Hg2 mi
12:00 PM59 °FFog.3 mph87%30.14 "Hg2 mi
11:00 AM57 °FFog.3 mph93%30.14 "Hg2 mi
10:00 AM57 °FFog.2 mph98%30.14 "Hg1 mi
9:00 AM57 °FFog.N/A99%30.13 "Hg1 mi
8:00 AM56 °FFog.2 mph99%30.13 "Hg1 mi
7:00 AM57 °FFog.3 mph99%30.12 "Hg0 mi
6:00 AM57 °FFog.N/A98%30.11 "Hg0 mi
5:00 AM57 °FFog.1 mph98%30.11 "Hg1 mi
Weather by CustomWeather, © 2014

See weather overviewHow to use our weather pages